VIR44 EGCC-MMGL

Flight info

Callsign VIR44
Flight time N/A
Altitude 36000
Route ASMIM L975 WAL L10 PENIL M144 BAGSO DCT DOGAL/M082F350 NATA ALLRY/N0468F360 N482C MIILS DCT PQI DCT YUL DCT YCF DCT YXU DCT ROD/N0477F380 DCT PXV J29 MEM DCT AEX DCT SBI DCT VUH DCT BRO J25 CVM DCT AGU UT44 MEZCA MEZCA1B
Aircraft A346/H-SDE2E3FGHIJ3J4J5M1RWXY/LB1D1

Departure

Time N/A
Airport Manchester Airport (EGCC)

Arrival

Time 2026-04-30 21:38
Airport Guadalajara International Airport (MMGL)
Time Latitude Longitude Altitude Speed Heading
2026-04-30 20:15 26.27525 -97.12110 35830 ft 442 kts 219°
2026-04-30 20:15 26.24982 -97.13960 35829 ft 442 kts 219°
2026-04-30 20:16 26.19819 -97.17713 35824 ft 442 kts 219°
2026-04-30 20:16 26.14661 -97.21459 35823 ft 442 kts 219°
2026-04-30 20:17 26.09505 -97.25198 35825 ft 443 kts 218°
2026-04-30 20:17 26.04324 -97.28949 35826 ft 443 kts 218°
2026-04-30 20:18 25.99184 -97.32666 35827 ft 443 kts 218°
2026-04-30 20:18 25.94050 -97.36448 35822 ft 441 kts 221°
2026-04-30 20:19 25.89244 -97.40662 35824 ft 438 kts 226°
2026-04-30 20:19 25.84644 -97.45117 35825 ft 439 kts 226°
2026-04-30 20:20 25.80061 -97.49545 35819 ft 440 kts 225°
2026-04-30 20:20 25.75192 -97.53721 35827 ft 444 kts 220°
2026-04-30 20:21 25.69994 -97.57472 35824 ft 446 kts 218°
2026-04-30 20:21 25.64766 -97.61176 35823 ft 446 kts 218°
2026-04-30 20:22 25.59569 -97.64852 35822 ft 446 kts 218°
2026-04-30 20:22 25.54326 -97.68555 35821 ft 446 kts 218°
2026-04-30 20:23 25.49081 -97.72254 35820 ft 447 kts 218°
2026-04-30 20:23 25.43837 -97.75950 35814 ft 447 kts 218°
2026-04-30 20:24 25.38640 -97.79647 35813 ft 447 kts 218°
2026-04-30 20:24 25.33420 -97.83402 35808 ft 447 kts 218°
2026-04-30 20:25 25.25569 -97.89030 35801 ft 448 kts 218°
2026-04-30 20:26 25.17715 -97.94642 35800 ft 448 kts 218°
2026-04-30 20:26 25.09895 -98.00219 35791 ft 448 kts 218°
2026-04-30 20:27 24.99392 -98.07690 35785 ft 449 kts 218°
2026-04-30 20:28 24.88884 -98.15102 35780 ft 451 kts 217°
2026-04-30 20:30 24.75572 -98.24261 35770 ft 452 kts 217°
2026-04-30 20:31 24.59570 -98.35246 35765 ft 453 kts 216°
2026-04-30 20:32 24.46226 -98.44380 35759 ft 453 kts 216°
2026-04-30 20:33 24.38189 -98.49872 35756 ft 454 kts 216°
2026-04-30 20:34 24.30141 -98.55363 35751 ft 454 kts 216°
2026-04-30 20:35 24.22123 -98.60822 35743 ft 454 kts 216°
2026-04-30 20:35 24.14064 -98.66301 35738 ft 455 kts 216°
2026-04-30 20:36 24.08685 -98.69951 35734 ft 455 kts 216°
2026-04-30 20:37 24.00613 -98.75420 35732 ft 455 kts 216°
2026-04-30 20:37 23.95271 -98.79061 35743 ft 455 kts 216°
2026-04-30 20:38 23.89901 -98.82743 35755 ft 455 kts 216°
2026-04-30 20:38 23.84524 -98.86416 35772 ft 456 kts 216°
2026-04-30 20:39 23.76585 -98.92032 35787 ft 453 kts 220°
2026-04-30 20:40 23.69649 -98.98943 35781 ft 448 kts 232°
2026-04-30 20:40 23.65816 -99.04282 35788 ft 445 kts 239°
2026-04-30 20:41 23.60846 -99.12837 35783 ft 445 kts 240°
2026-04-30 20:41 23.57574 -99.18523 35780 ft 445 kts 240°
2026-04-30 20:42 23.54272 -99.24246 35778 ft 445 kts 240°
2026-04-30 20:43 23.49312 -99.32830 35791 ft 446 kts 240°
2026-04-30 20:43 23.46022 -99.38513 35796 ft 446 kts 240°
2026-04-30 20:44 23.41051 -99.47091 35791 ft 446 kts 240°
2026-04-30 20:45 23.34413 -99.58519 35800 ft 446 kts 240°
2026-04-30 20:45 23.31116 -99.64186 35793 ft 446 kts 240°
2026-04-30 20:46 23.24468 -99.75593 35778 ft 446 kts 240°
2026-04-30 20:47 23.19495 -99.84110 35767 ft 447 kts 240°
2026-04-30 20:48 23.14492 -99.92665 35745 ft 447 kts 240°
2026-04-30 20:48 23.11148 -99.98372 35743 ft 447 kts 240°
2026-04-30 20:49 23.07807 -100.04073 35740 ft 447 kts 240°
2026-04-30 20:50 23.02809 -100.12586 35733 ft 447 kts 240°
2026-04-30 20:50 22.99456 -100.18291 35722 ft 447 kts 240°
2026-04-30 20:51 22.96104 -100.23986 35722 ft 447 kts 240°
2026-04-30 20:51 22.91077 -100.32516 35720 ft 447 kts 240°
2026-04-30 20:52 22.87740 -100.38170 35722 ft 447 kts 240°
2026-04-30 20:53 22.82698 -100.46701 35724 ft 448 kts 240°
2026-04-30 20:53 22.79334 -100.52385 35723 ft 448 kts 240°
2026-04-30 20:54 22.74277 -100.60917 35728 ft 448 kts 240°
2026-04-30 20:55 22.69239 -100.69405 35731 ft 448 kts 240°
2026-04-30 20:55 22.65861 -100.75088 35731 ft 448 kts 239°
2026-04-30 20:56 22.60788 -100.83609 35731 ft 449 kts 239°
2026-04-30 20:57 22.55720 -100.92109 35818 ft 449 kts 239°
2026-04-30 20:57 22.52328 -100.97789 35862 ft 449 kts 239°
2026-04-30 20:58 22.47236 -101.06306 35895 ft 449 kts 239°
2026-04-30 20:58 22.43859 -101.11946 35896 ft 450 kts 239°
2026-04-30 20:59 22.38753 -101.20463 35858 ft 449 kts 239°
2026-04-30 21:00 22.31944 -101.31800 35775 ft 449 kts 239°
2026-04-30 21:01 22.26853 -101.40264 35777 ft 449 kts 239°
2026-04-30 21:02 22.21732 -101.48760 35782 ft 450 kts 239°
2026-04-30 21:02 22.18318 -101.54418 35786 ft 450 kts 239°
2026-04-30 21:03 22.14923 -101.60037 35786 ft 450 kts 239°
2026-04-30 21:03 22.11502 -101.65695 35783 ft 450 kts 239°
2026-04-30 21:04 22.08078 -101.71349 35784 ft 449 kts 239°
2026-04-30 21:04 22.02943 -101.79819 35776 ft 450 kts 239°
2026-04-30 21:05 21.99532 -101.85437 35771 ft 450 kts 239°
2026-04-30 21:05 21.96096 -101.91091 35767 ft 451 kts 239°
2026-04-30 21:06 21.92658 -101.96742 35766 ft 451 kts 239°
2026-04-30 21:06 21.89213 -102.02396 35798 ft 451 kts 239°
2026-04-30 21:07 21.85786 -102.08014 35879 ft 451 kts 239°
2026-04-30 21:07 21.82337 -102.13660 35964 ft 451 kts 239°
2026-04-30 21:08 21.80622 -102.16463 35854 ft 446 kts 239°
2026-04-30 21:08 21.78917 -102.19246 35354 ft 445 kts 239°
2026-04-30 21:08 21.77236 -102.21993 34766 ft 446 kts 239°
2026-04-30 21:08 21.75480 -102.24832 34238 ft 446 kts 238°
2026-04-30 21:09 21.73675 -102.27495 33577 ft 448 kts 235°
2026-04-30 21:09 21.71672 -102.30138 32731 ft 450 kts 232°
2026-04-30 21:09 21.69585 -102.32603 31492 ft 453 kts 228°
2026-04-30 21:09 21.67323 -102.34976 30424 ft 457 kts 224°
2026-04-30 21:10 21.64914 -102.37220 29864 ft 457 kts 221°
2026-04-30 21:10 21.62425 -102.39342 29192 ft 457 kts 220°
2026-04-30 21:10 21.59912 -102.41456 28485 ft 458 kts 219°
2026-04-30 21:10 21.57408 -102.43559 27763 ft 458 kts 219°
2026-04-30 21:11 21.54900 -102.45666 27083 ft 457 kts 219°
2026-04-30 21:11 21.52443 -102.47730 26638 ft 451 kts 219°
2026-04-30 21:11 21.49984 -102.49795 26159 ft 446 kts 219°
2026-04-30 21:11 21.47554 -102.51837 25687 ft 441 kts 219°
2026-04-30 21:12 21.45147 -102.53858 25212 ft 437 kts 219°
2026-04-30 21:12 21.42757 -102.55865 24745 ft 434 kts 219°
2026-04-30 21:12 21.40387 -102.57854 24295 ft 431 kts 219°
2026-04-30 21:12 21.38035 -102.59826 23885 ft 428 kts 219°
2026-04-30 21:13 21.35697 -102.61786 23453 ft 425 kts 219°
2026-04-30 21:13 21.33400 -102.63713 22987 ft 423 kts 219°
2026-04-30 21:13 21.31086 -102.65654 22501 ft 420 kts 219°
2026-04-30 21:13 21.28779 -102.67591 21835 ft 422 kts 219°
2026-04-30 21:14 21.26458 -102.69537 21119 ft 425 kts 218°
2026-04-30 21:14 21.24117 -102.71497 20384 ft 427 kts 218°
2026-04-30 21:14 21.21769 -102.73462 19655 ft 429 kts 218°
2026-04-30 21:14 21.19412 -102.75433 18965 ft 430 kts 218°
2026-04-30 21:15 21.17852 -102.76739 18468 ft 428 kts 218°
2026-04-30 21:15 21.14784 -102.79288 17725 ft 417 kts 217°
2026-04-30 21:15 21.12244 -102.80775 17057 ft 417 kts 200°
2026-04-30 21:15 21.09414 -102.81348 16551 ft 414 kts 182°
2026-04-30 21:16 21.06568 -102.81099 16145 ft 408 kts 172°
2026-04-30 21:16 21.03773 -102.80653 15699 ft 404 kts 172°
2026-04-30 21:16 21.01938 -102.80355 15421 ft 401 kts 172°
2026-04-30 21:16 20.99191 -102.79924 14984 ft 398 kts 172°
2026-04-30 21:17 20.96460 -102.79505 14552 ft 394 kts 172°
2026-04-30 21:17 20.93761 -102.79071 14120 ft 392 kts 171°
2026-04-30 21:17 20.91073 -102.78632 13694 ft 389 kts 171°
2026-04-30 21:17 20.87550 -102.78060 13093 ft 385 kts 172°
2026-04-30 21:18 20.85763 -102.77771 12825 ft 382 kts 172°
2026-04-30 21:18 20.83194 -102.77357 12714 ft 376 kts 172°
2026-04-30 21:18 20.79733 -102.76802 12708 ft 375 kts 172°
2026-04-30 21:18 20.78024 -102.76528 12712 ft 375 kts 172°
2026-04-30 21:19 20.75445 -102.76114 12705 ft 375 kts 172°
2026-04-30 21:19 20.72894 -102.75569 12702 ft 374 kts 164°
2026-04-30 21:19 20.70482 -102.74547 12704 ft 373 kts 153°
2026-04-30 21:19 20.68282 -102.73074 12706 ft 373 kts 144°
2026-04-30 21:20 20.66198 -102.71413 12711 ft 373 kts 142°
2026-04-30 21:20 20.64138 -102.69727 12703 ft 373 kts 142°
2026-04-30 21:20 20.62101 -102.68073 12706 ft 373 kts 143°
2026-04-30 21:20 20.60027 -102.66405 12707 ft 373 kts 143°
2026-04-30 21:21 20.57946 -102.64743 12706 ft 373 kts 143°
2026-04-30 21:21 20.55779 -102.63225 12698 ft 373 kts 153°
2026-04-30 21:21 20.50831 -102.61661 12705 ft 373 kts 173°
2026-04-30 21:22 20.48257 -102.61339 12707 ft 373 kts 174°
2026-04-30 21:22 20.40527 -102.60416 12699 ft 372 kts 173°
2026-04-30 21:23 20.37992 -102.60097 12701 ft 373 kts 173°
2026-04-30 21:23 20.35405 -102.59952 12699 ft 372 kts 183°
2026-04-30 21:23 20.30401 -102.61241 12709 ft 372 kts 202°
2026-04-30 21:24 20.28024 -102.62325 12709 ft 372 kts 204°
2026-04-30 21:24 20.25658 -102.63430 12712 ft 371 kts 204°
2026-04-30 21:24 20.23284 -102.64527 12718 ft 372 kts 204°
2026-04-30 21:24 20.20908 -102.65613 12718 ft 371 kts 204°
2026-04-30 21:25 20.16269 -102.67931 12722 ft 371 kts 213°
2026-04-30 21:25 20.14250 -102.69630 12732 ft 370 kts 225°
2026-04-30 21:25 20.12561 -102.71696 12741 ft 370 kts 233°
2026-04-30 21:26 20.09485 -102.76086 12742 ft 370 kts 234°
2026-04-30 21:26 20.07949 -102.78283 12747 ft 370 kts 234°
2026-04-30 21:27 20.06213 -102.83185 12734 ft 352 kts 274°
2026-04-30 21:27 20.06769 -102.85636 12737 ft 334 kts 295°
2026-04-30 21:27 20.08048 -102.87637 12460 ft 325 kts 316°
2026-04-30 21:28 20.11898 -102.89874 11941 ft 311 kts 339°
2026-04-30 21:28 20.13900 -102.90690 11701 ft 304 kts 339°
2026-04-30 21:28 20.17744 -102.92279 11249 ft 289 kts 338°
2026-04-30 21:29 20.19567 -102.93047 11045 ft 282 kts 338°
2026-04-30 21:29 20.24850 -102.95297 10419 ft 263 kts 337°
2026-04-30 21:30 20.28182 -102.96723 10044 ft 257 kts 337°
2026-04-30 21:31 20.33119 -102.98840 9477 ft 253 kts 336°
2026-04-30 21:31 20.36323 -103.00213 9105 ft 242 kts 336°
2026-04-30 21:32 20.39380 -103.01622 8801 ft 237 kts 320°
2026-04-30 21:32 20.40397 -103.02958 8734 ft 232 kts 294°
2026-04-30 21:32 20.41054 -103.04534 8789 ft 233 kts 292°
2026-04-30 21:32 20.41712 -103.06122 8688 ft 234 kts 294°
2026-04-30 21:33 20.42352 -103.07587 8449 ft 230 kts 294°
2026-04-30 21:33 20.43641 -103.10594 8116 ft 227 kts 293°
2026-04-30 21:33 20.44272 -103.12105 7914 ft 217 kts 293°
2026-04-30 21:34 20.44858 -103.13520 7786 ft 207 kts 293°
2026-04-30 21:34 20.45937 -103.16127 7317 ft 193 kts 293°
2026-04-30 21:34 20.46482 -103.17438 7130 ft 193 kts 293°
2026-04-30 21:35 20.47018 -103.18731 6929 ft 184 kts 293°
2026-04-30 21:35 20.47524 -103.19950 6757 ft 177 kts 294°
2026-04-30 21:35 20.48019 -103.21140 6588 ft 174 kts 295°
2026-04-30 21:35 20.48510 -103.22317 6435 ft 173 kts 294°
2026-04-30 21:36 20.49001 -103.23492 6284 ft 173 kts 294°
2026-04-30 21:36 20.49490 -103.24668 6092 ft 173 kts 293°
2026-04-30 21:37 20.50939 -103.28144 5327 ft 170 kts 292°
2026-04-30 21:37 20.51414 -103.29288 5092 ft 167 kts 292°
2026-04-30 21:37 20.51860 -103.30356 5025 ft 137 kts 294°
2026-04-30 21:37 20.52176 -103.31100 5027 ft 78 kts 294°
2026-04-30 21:38 20.52355 -103.31464 5030 ft 32 kts 316°
2026-04-30 21:38 20.52489 -103.31576 5027 ft 15 kts 329°
2026-04-30 21:38 20.52571 -103.31581 5025 ft 10 kts 30°
2026-04-30 21:38 20.52594 -103.31528 5026 ft 7 kts 92°
2026-04-30 21:39 20.52577 -103.31461 5025 ft 12 kts 109°
2026-04-30 21:39 20.52539 -103.31348 5026 ft 20 kts 109°
2026-04-30 21:39 20.52492 -103.31205 5026 ft 21 kts 109°
2026-04-30 21:39 20.52443 -103.31053 5027 ft 22 kts 109°
2026-04-30 21:40 20.52393 -103.30902 5028 ft 23 kts 109°
2026-04-30 21:40 20.52339 -103.30736 5024 ft 24 kts 109°
2026-04-30 21:40 20.52285 -103.30572 5028 ft 15 kts 109°
2026-04-30 21:40 20.52271 -103.30494 5026 ft 8 kts 64°
2026-04-30 21:41 20.52326 -103.30455 5025 ft 11 kts 20°
2026-04-30 21:41 20.52402 -103.30425 5027 ft 12 kts 20°
2026-04-30 21:41 20.52448 -103.30374 5026 ft 10 kts 84°
2026-04-30 21:41 20.52433 -103.30291 5027 ft 12 kts 108°
2026-04-30 21:42 20.52409 -103.30214 5021 ft 0 kts 109°
2026-04-30 21:43 20.52407 -103.30207 5024 ft 2 kts 109°
2026-04-30 21:43 20.52400 -103.30185 5025 ft 4 kts 109°
2026-04-30 21:43 20.52388 -103.30148 5024 ft 6 kts 109°
2026-04-30 21:43 20.52372 -103.30096 5026 ft 8 kts 109°
2026-04-30 21:44 20.52351 -103.30032 5024 ft 10 kts 109°
2026-04-30 21:44 20.52327 -103.29955 5025 ft 12 kts 109°
2026-04-30 21:44 20.52294 -103.29871 5026 ft 13 kts 118°
2026-04-30 21:44 20.52249 -103.29787 5025 ft 11 kts 133°
2026-04-30 21:45 20.52175 -103.29775 5025 ft 12 kts 194°
2026-04-30 21:45 20.52088 -103.29804 5025 ft 14 kts 202°
2026-04-30 21:45 20.52060 -103.29879 5026 ft 13 kts 286°
2026-04-30 21:45 20.52090 -103.29974 5027 ft 14 kts 289°
2026-04-30 21:46 20.52127 -103.30082 5025 ft 16 kts 289°
2026-04-30 21:46 20.52166 -103.30202 5024 ft 14 kts 289°
2026-04-30 21:46 20.52187 -103.30268 5027 ft 10 kts 289°
2026-04-30 21:46 20.52211 -103.30343 5026 ft 11 kts 289°
2026-04-30 21:47 20.52237 -103.30426 5025 ft 10 kts 292°
2026-04-30 21:47 20.52295 -103.30457 5024 ft 11 kts
2026-04-30 21:47 20.52375 -103.30434 5027 ft 13 kts 18°
2026-04-30 21:47 20.52442 -103.30392 5026 ft 11 kts 65°
2026-04-30 21:48 20.52435 -103.30307 5022 ft 13 kts 109°
2026-04-30 21:48 20.52406 -103.30218 5019 ft 5 kts 107°
2026-04-30 21:48 20.52397 -103.30175 5025 ft 6 kts 83°
2026-04-30 21:48 20.52426 -103.30142 5026 ft 3 kts 27°
2026-04-30 21:49 20.52442 -103.30134 5025 ft 0 kts 21°